Flag for Finland Weather past 2 weeks in Espoo, Finland

Now
77 °F

Sunny.


Feels Like: 79 °F
Forecast: 63 / 74 °F
Wind: 13 mph from Southeast

Location: Helsinki-Vantaa

Current Time: Jul 31, 2014 at 10:32:35 AM

Latest Report: Jul 31, 2014 at 10:20 AM


Visibility: 10 mi

Pressure: 29.68 "Hg

Humidity: 61%

Dew point: 63 °F

Location of EspooLocation

Historic Weather in Espoo — Graph

°F

Espoo temperature yesterday

Maximum temperature yesterday: 82 °F (at 2:50 PM)
Minimum temperature yesterday: 61 °F (at 3:50 AM)
Average temperature yesterday: 72 °F

Past Weeks' High & Low Weather Summary

 TemperatureHumidityPressure
High88 °F (Jul 26, 12:50 PM)100% (Jul 17, 5:50 AM)30.24 "Hg (Jul 17, 5:50 AM)
Low54 °F (Jul 22, 3:20 AM)31% (Jul 23, 5:20 PM)29.68 "Hg (Jul 31, 7:50 AM)
Average71 °F66%30.05 "Hg
* Reported Jul 16 9:20 AM — Jul 31 9:20 AM, Espoo, Weather by CustomWeather, © 2014

Note: Actual official high and low records may vary slightly from our data, if they occured in-between our weather recording intervals... More about our weather records

Advertising

Espoo weather history for previous 24 hours

 ConditionsComfort  
Time TempWeatherWind HumidityBarometerVisibility
9:20 AM
Jul 31
77 °FSunny.15 mph65%29.68 "Hg10 mi
8:50 AM77 °FSunny.14 mph61%29.68 "Hg10 mi
8:20 AM77 °FSunny.12 mph65%29.68 "Hg10 mi
7:50 AM75 °FSunny.10 mph69%29.68 "Hg10 mi
7:20 AM73 °FSunny.9 mph74%29.71 "Hg10 mi
6:50 AM73 °FSunny.9 mph74%29.71 "Hg10 mi
6:20 AM72 °FSunny.8 mph83%29.71 "Hg10 mi
5:50 AM70 °FFog.8 mph88%29.71 "HgN/A
5:20 AM72 °FFog.7 mph83%29.71 "HgN/A
4:50 AM70 °FClear.9 mph94%29.71 "Hg10 mi
4:20 AM70 °FClear.8 mph88%29.71 "Hg10 mi
3:50 AM70 °FClear.6 mph88%29.74 "Hg10 mi
3:20 AM70 °FClear.6 mph83%29.74 "Hg10 mi
2:50 AM72 °FClear.8 mph78%29.74 "Hg10 mi
2:20 AM72 °FClear.7 mph83%29.74 "Hg10 mi
1:50 AM70 °FPassing clouds.6 mph94%29.77 "HgN/A
1:20 AM68 °FThunderstorms. Passing clouds.3 mph94%29.77 "HgN/A
12:50 AM70 °FClear.2 mph88%29.77 "Hg10 mi
12:20 AM72 °FClear.3 mph88%29.77 "Hg10 mi
11:50 PM
Jul 30
70 °FPassing clouds.5 mph88%29.77 "HgN/A
11:20 PM70 °FClear.3 mph88%29.77 "Hg10 mi
10:50 PM70 °FSunny.3 mph83%29.77 "Hg10 mi
10:20 PM72 °FSunny.3 mph78%29.77 "Hg10 mi
9:50 PM73 °FSunny.3 mph69%29.77 "Hg10 mi
9:20 PM73 °FSunny.3 mph69%29.80 "Hg10 mi
8:50 PM73 °FPartly sunny.7 mph74%29.80 "HgN/A
8:20 PM75 °FPartly sunny.8 mph78%29.77 "HgN/A
7:50 PM75 °FPartly sunny.9 mph83%29.80 "HgN/A
7:20 PM75 °FThundershowers. Broken clouds.6 mph83%29.80 "HgN/A
6:50 PM77 °FScattered showers. Partly sunny.10 mph69%29.80 "HgN/A
6:20 PM77 °FScattered showers. Partly sunny.13 mph65%29.80 "HgN/A
5:50 PM81 °FPartly sunny.12 mph54%29.80 "HgN/A
5:20 PM82 °FScattered clouds.10 mph51%29.80 "HgN/A
4:50 PM81 °FScattered clouds.7 mph54%29.80 "HgN/A
4:20 PM81 °FScattered clouds.10 mph51%29.83 "HgN/A
3:50 PM82 °FScattered clouds.13 mph45%29.83 "HgN/A
3:20 PM82 °FScattered clouds.10 mph45%29.83 "HgN/A
2:50 PM82 °FScattered clouds.9 mph51%29.83 "HgN/A
2:20 PM81 °FScattered clouds.12 mph51%29.83 "HgN/A
1:50 PM81 °FPartly sunny.12 mph58%29.83 "HgN/A
1:20 PM81 °FPartly sunny.12 mph58%29.83 "HgN/A
12:50 PM81 °FPartly sunny.8 mph54%29.83 "HgN/A
12:20 PM81 °FScattered clouds.5 mph58%29.83 "HgN/A
11:50 AM81 °FScattered clouds.3 mph62%29.83 "HgN/A
11:20 AM77 °FScattered clouds.3 mph74%29.83 "HgN/A
10:50 AM75 °FPassing clouds.3 mph78%29.83 "HgN/A
10:20 AM73 °FScattered clouds.5 mph83%29.83 "HgN/A
Weather by CustomWeather, © 2014

See weather overviewHow to use our weather pages